Tracking 35035 objects as of 16-Aug-2026
HD Live streaming from Space Station
objects crossing your sky now

STARLINK-4191

Track STARLINK-4191 now!
10-day predictions
STARLINK-4191 is classified as:


NORAD ID: 52860
Int'l Code: 2022-062AG
Launch date: June 17, 2022
Source: United States (US)
Launch site: AIR FORCE EASTERN TEST RANGE (AFETR)
Your satellite tracking list
Your tracking list is empty




NASA's NSSDC Master Catalog

Two Line Element Set (TLE):
1 52860U 22062AG  26228.12526626  .00001363  00000-0  49967-4 0  9995
2 52860  53.1635  23.0356 0001136  75.2831 284.8298 15.35402820230064
Source of the keplerian elements: AFSPC